Wind_Speed
15 14 13 13 13 13 13 14 15 17 20 22 23 24 24 27 31 28 7 9 7 14 14 21 12 15 16 6 4 3 3 3 6 8 4 3 7 4 4 6 7 6 8 8 17
17 17 16 16 14 13 14 15 15 17 20 21 22 23 23 25 28 14 8 13 16 14 11 9 11 11 4 5 4 4 4 4 2 4 2 2 8 8 5 3 8 11 10 17 26
21 19 18 17 16 16 15 15 15 17 19 20 21 21 21 21 6 2 3 5 6 3 3 12 18 9 5 4 7 5 6 6 1 3 6 3 4 5 6 2 5 8 7 15 23
23 22 20 20 19 18 16 16 16 16 18 20 19 20 19 7 5 1 2 3 2 4 9 10 6 4 5 5 7 4 7 4 7 4 4 5 4 3 6 4 9 10 11 15 17
26 25 24 23 21 16 17 16 16 16 17 18 16 17 9 3 10 18 4 4 6 8 11 11 9 5 7 7 7 5 4 7 3 9 6 4 5 2 3 8 10 11 17 15 14
30 26 27 23 17 15 14 14 15 15 15 16 14 13 2 6 7 10 5 4 10 11 15 14 6 8 6 6 3 4 4 6 2 5 6 6 5 4 6 7 10 17 16 14 14
11 11 11 7 9 8 10 11 13 13 13 13 11 7 4 17 12 11 10 9 10 15 9 18 18 3 7 8 7 8 3 7 8 5 4 5 4 8 5 9 9 17 16 15 16
14 10 3 4 7 5 8 9 10 11 12 11 8 3 7 16 16 20 16 18 14 16 9 14 14 5 1 7 8 3 4 4 7 11 5 9 7 10 11 11 9 17 14 15 13
9 3 4 4 6 4 7 7 9 9 12 9 6 3 9 10 10 21 15 10 13 12 11 11 6 2 6 3 5 5 4 8 12 12 8 6 6 5 12 11 9 17 14 14 13
0 3 6 3 4 5 6 7 7 10 5 6 10 5 8 7 7 9 14 13 9 6 6 5 1 3 4 5 7 6 8 7 9 3 8 8 9 6 11 11 11 17 16 15 13
5 9 10 7 6 4 3 7 3 2 5 9 7 7 7 7 2 4 7 12 9 5 7 7 4 9 19 14 8 9 11 7 6 8 9 14 9 9 9 8 9 14 15 14 14
9 8 8 8 7 5 5 1 3 3 9 18 23 21 28 20 7 8 13 7 7 13 8 6 16 17 12 11 14 17 18 12 9 4 5 10 11 9 7 6 14 13 15 16 14
12 10 9 9 6 6 7 9 4 4 4 9 19 17 16 20 13 12 12 8 8 11 13 16 8 18 16 16 18 16 17 10 9 7 2 5 4 6 6 4 11 13 14 15 16
15 13 13 10 4 6 5 12 8 0 3 7 6 8 14 15 11 29 20 8 7 15 15 13 18 23 18 19 15 12 5 6 5 5 8 2 7 6 6 15 11 15 15 14 15
17 16 17 18 5 8 5 11 2 2 3 3 4 1 7 16 5 13 39 13 16 11 11 9 12 16 22 8 17 9 2 1 1 3 2 1 6 4 5 6 14 14 14 13 12
17 20 22 19 11 5 4 15 7 2 8 7 6 5 7 21 10 4 13 10 8 12 15 13 12 9 21 12 11 3 3 4 4 3 5 6 6 8 9 17 15 14 14 16 15
4 15 23 24 9 11 14 10 3 5 6 8 8 9 11 12 21 12 5 19 13 9 17 14 21 21 7 5 6 7 7 2 2 1 8 12 11 19 8 8 20 20 18 16 15
2 7 29 29 20 18 16 2 7 12 17 8 5 13 13 12 15 18 11 17 22 12 3 13 11 17 10 13 6 10 11 6 7 5 4 12 7 6 4 8 22 21 19 17 15
9 4 10 30 23 22 4 8 9 7 6 7 17 15 17 15 9 17 23 23 18 26 14 9 14 8 21 6 11 5 14 9 4 1 2 4 2 3 7 12 18 19 18 15 14
4 4 9 9 29 15 6 10 7 13 9 7 6 5 10 18 18 15 14 18 23 18 20 5 5 12 12 10 19 10 4 6 4 5 8 5 6 5 7 8 14 15 14 13 12
4 2 5 13 24 5 7 8 12 17 11 3 7 9 7 11 12 20 15 13 21 18 14 23 10 6 8 21 23 13 14 5 7 7 5 2 5 4 12 13 14 13 15 16 15
4 1 2 13 8 2 8 5 16 18 11 8 4 8 8 13 14 12 16 16 14 9 19 23 10 15 18 6 16 16 21 13 6 10 5 4 6 6 14 14 13 13 15 14 14
3 2 6 7 4 8 3 17 10 7 19 9 5 4 7 9 7 7 2 7 17 9 7 8 10 5 11 6 8 17 17 16 11 5 14 5 5 6 11 13 8 7 15 16 15
2 2 1 3 2 8 10 11 20 25 19 18 7 12 7 10 12 4 6 10 11 11 20 15 5 20 14 2 3 12 13 8 4 7 9 9 2 8 1 12 9 10 12 13 14
2 4 3 3 6 14 14 8 16 21 18 13 6 13 8 5 11 4 4 5 4 6 7 7 0 10 4 10 9 7 9 6 2 3 5 4 5 5 7 10 16 18 16 15 16
4 2 3 4 8 12 11 9 24 19 18 23 11 11 12 11 12 3 5 3 2 1 3 1 3 5 6 7 7 4 10 11 8 9 7 9 14 8 12 10 14 16 23 19 21
7 7 1 5 4 6 12 15 10 16 14 17 19 12 10 7 5 6 5 6 3 1 3 0 1 3 5 10 12 4 10 11 11 12 8 10 12 11 13 17 12 17 15 20 22
Wind_Direction
257 263 266 270 280 288 299 309 319 324 327 328 331 333 335 332 326 324 263 260 261 279 303 311 298 280 276 256 224 289 44 297 290 344 152 101 109 66 112 117 62 91 109 132 90
254 260 267 274 273 277 288 301 311 320 322 324 327 332 334 333 327 296 285 269 280 287 295 299 301 298 252 259 280 133 151 250 96 10 22 60 89 98 78 133 114 103 101 92 82
255 256 261 267 270 272 277 290 304 315 319 321 326 330 333 334 309 240 23 14 358 335 266 296 288 302 294 278 261 220 207 266 45 42 20 358 90 117 105 42 70 115 116 83 74
254 255 259 263 265 267 275 286 296 308 315 318 326 327 332 336 310 289 351 1 47 33 317 287 259 277 284 252 255 252 247 249 171 94 17 1 352 43 91 112 112 107 91 95 78
253 252 253 253 252 257 270 280 291 302 311 315 323 330 346 283 246 276 291 285 286 297 274 283 295 266 261 282 311 210 234 280 186 141 145 309 315 332 348 122 114 101 93 85 82
249 249 245 235 234 250 266 277 288 297 304 310 320 332 295 263 264 242 277 293 270 280 287 285 284 310 276 293 322 327 16 331 266 190 177 191 239 148 236 154 128 103 98 90 83
174 180 186 225 203 239 268 278 287 293 298 304 317 342 264 248 266 244 272 261 256 268 263 282 326 22 349 315 309 332 353 324 287 258 210 120 305 238 200 145 149 115 108 100 93
3 345 359 360 292 275 275 288 290 292 292 301 311 312 248 268 270 276 266 226 259 271 277 292 308 343 321 305 329 321 345 279 255 227 204 118 260 249 167 142 174 124 115 104 98
22 357 299 334 300 328 292 290 292 289 291 292 300 192 261 289 240 250 232 253 239 239 265 273 279 241 317 222 311 239 227 239 267 231 158 137 238 112 138 154 188 137 131 122 108
230 194 249 272 300 305 319 308 276 287 306 264 260 324 252 249 241 220 228 226 253 183 252 236 261 229 227 183 208 219 218 244 246 238 124 176 237 189 168 171 192 136 141 132 120
214 208 221 228 228 260 307 313 279 157 232 218 194 229 264 215 148 217 206 190 228 202 210 187 180 212 222 221 229 252 259 270 273 199 149 189 211 237 184 188 158 148 137 129 126
216 204 216 212 216 209 254 189 90 11 288 253 249 250 266 279 287 222 212 191 190 226 191 257 225 222 238 239 225 239 257 266 282 153 140 216 222 222 230 245 173 152 141 134 136
211 201 201 203 188 220 223 247 322 321 273 271 235 239 228 238 247 236 188 195 201 217 211 218 234 217 227 233 242 234 235 247 235 293 228 160 233 218 243 166 114 137 138 137 141
209 203 189 182 187 198 224 226 272 79 306 270 220 254 215 222 252 222 225 179 226 212 219 251 235 253 232 233 234 246 223 258 265 276 265 116 279 247 230 227 138 141 134 127 121
210 206 197 192 142 169 187 182 326 332 308 274 199 219 169 190 134 205 213 209 214 205 192 216 200 223 240 234 225 242 213 101 302 304 306 156 294 205 196 167 169 152 143 136 132
212 213 201 195 222 239 202 167 129 134 231 260 143 200 155 199 227 343 183 218 221 249 260 245 260 229 235 236 221 266 95 68 33 67 271 160 210 250 207 222 167 155 145 134 124
256 225 206 195 194 176 155 136 160 211 195 222 196 180 207 189 217 222 224 200 200 194 234 248 251 256 243 239 222 178 113 34 326 285 241 184 218 241 246 226 171 164 150 144 135
307 250 214 200 191 190 169 173 203 219 215 283 254 181 194 202 210 210 223 233 217 228 174 216 255 222 220 207 199 201 172 174 194 197 242 214 240 243 210 158 151 155 143 138 140
331 260 225 207 200 200 151 202 203 219 224 275 256 265 215 221 212 201 215 232 217 208 200 193 233 189 213 171 182 210 210 194 311 167 82 219 164 47 76 97 127 136 141 145 146
73 359 257 212 196 212 227 220 243 238 281 356 336 318 273 212 207 209 200 231 238 224 213 252 299 221 218 186 211 195 153 184 211 216 232 216 220 214 157 133 135 142 149 146 146
82 37 264 213 200 202 229 212 240 246 264 318 339 303 303 298 284 218 207 234 214 224 207 227 251 281 237 207 203 200 222 207 168 210 184 204 250 200 173 163 154 160 163 160 158
106 6 269 178 198 214 218 227 232 253 245 280 328 308 274 302 302 289 244 216 9 305 206 217 214 247 250 264 191 196 216 205 185 220 210 175 251 139 156 166 164 168 164 155 154
149 230 219 166 226 245 247 227 252 284 232 235 226 231 336 325 312 318 112 13 15 22 24 322 208 221 240 244 199 201 208 214 201 141 218 146 255 168 168 174 161 149 166 156 153
122 295 234 200 281 244 247 239 233 245 255 265 240 245 264 308 290 314 6 16 356 10 6 345 274 215 222 290 145 200 214 210 176 206 225 224 267 283 62 119 92 70 124 149 166
163 227 235 215 223 231 237 241 247 233 225 229 226 241 213 199 294 209 37 355 322 2 10 338 308 341 359 21 48 52 275 298 212 211 195 255 275 269 285 175 180 173 168 185 179
170 175 245 265 253 239 245 244 236 251 222 221 207 217 219 236 230 96 152 194 213 46 107 310 330 8 328 321 37 340 296 273 288 278 242 247 261 241 270 272 200 200 190 193 180
218 262 357 258 292 239 221 236 238 233 243 226 232 215 227 205 217 158 157 158 229 291 338 16 306 56 290 337 344 246 225 253 241 243 247 239 246 248 252 252 235 218 181 173 180
Height
824 825 825 824 825 825 824 823 822 820 818 816 813 812 808 804 798 793 791 788 787 784 784 784 780 779 778 779 771 770 800 810 795 787 778 756 765 758 759 770 772 779 784 785 788
821 823 823 824 823 822 822 822 820 819 817 815 813 811 808 804 797 789 788 786 784 783 783 784 782 778 783 777 776 783 805 793 775 777 776 765 766 766 770 773 779 784 784 786 787
819 819 820 821 822 822 820 820 819 818 816 814 812 811 808 803 800 787 786 785 783 783 783 784 781 778 779 776 776 776 796 777 773 772 773 772 769 764 773 782 782 787 786 789 791
815 816 817 818 818 820 819 818 818 816 815 813 811 810 808 805 808 787 786 786 785 783 784 782 780 784 784 783 770 780 772 768 772 769 773 778 771 775 773 782 777 781 783 789 794
811 812 813 814 814 816 818 816 816 815 813 812 811 810 808 806 793 786 785 785 785 784 783 781 782 780 788 777 771 773 768 766 763 768 771 772 778 777 777 777 775 778 786 793 798
805 806 807 808 810 812 814 814 814 813 811 811 810 810 810 810 783 783 783 784 785 783 781 778 779 775 779 775 778 767 768 772 768 766 768 777 779 777 775 775 777 783 791 796 801
799 799 803 808 804 808 811 813 811 811 811 810 810 810 808 795 783 782 782 782 783 781 779 778 779 778 779 781 768 766 777 777 774 772 772 773 785 783 772 773 778 787 793 798 805
799 805 804 803 807 806 809 810 809 810 810 809 808 810 801 781 781 779 777 778 780 780 778 777 778 777 780 777 777 778 780 800 775 771 771 777 796 771 771 774 780 791 795 801 807
796 800 805 804 807 804 807 806 808 807 808 808 807 807 794 778 777 771 775 776 778 777 779 777 776 782 783 792 801 787 802 794 782 762 773 779 786 769 764 771 778 790 797 801 806
791 795 803 804 805 808 807 806 806 804 805 809 806 809 785 774 770 770 771 774 776 776 780 779 782 791 792 795 811 799 794 790 789 767 768 782 782 770 767 770 774 789 794 798 803
786 791 797 798 804 808 806 807 808 805 804 796 789 782 770 767 769 771 771 772 773 779 789 779 794 795 780 778 778 777 778 781 769 756 767 776 779 768 766 771 779 785 790 797 802
790 792 798 800 804 803 807 805 803 808 801 791 783 776 773 768 772 768 771 777 777 785 781 789 784 771 769 770 774 774 775 778 764 756 764 774 777 767 761 762 769 776 786 792 799
787 790 796 802 801 803 803 805 804 802 805 782 766 759 764 768 768 764 766 768 774 779 777 780 767 763 764 766 770 767 771 771 771 758 759 767 778 770 760 759 763 772 778 785 792
785 790 793 798 804 801 803 801 806 804 813 777 755 747 749 759 757 757 757 762 769 771 771 770 760 762 762 763 760 771 751 755 761 772 789 763 793 769 762 759 768 772 778 785 791
782 787 789 796 797 800 799 800 805 805 806 749 743 738 735 753 745 744 745 756 760 759 762 758 753 757 760 752 750 759 748 756 759 773 774 774 791 770 760 771 771 774 777 783 789
778 783 787 792 795 796 796 799 808 811 792 754 736 743 740 747 742 739 746 751 752 758 749 749 738 741 743 739 742 743 757 761 768 779 807 781 788 765 763 747 763 769 773 781 791
779 780 784 786 791 795 798 801 815 792 744 739 732 736 741 737 744 746 755 759 759 769 762 752 743 733 736 746 741 747 770 810 810 812 795 765 775 752 740 731 742 757 770 780 788
776 778 778 781 787 793 796 805 799 758 744 720 720 728 742 735 733 739 753 762 750 746 749 759 759 741 728 738 748 747 755 784 794 801 782 756 773 748 728 727 733 747 766 778 788
775 775 778 777 784 789 795 789 772 753 735 738 731 734 736 732 729 739 749 746 736 732 743 746 743 719 719 724 735 749 755 746 764 763 795 770 747 746 741 742 746 758 768 778 785
774 777 775 776 779 786 784 774 765 749 738 744 747 729 729 727 730 732 739 728 728 722 722 727 742 716 712 719 722 733 736 765 774 780 779 759 753 764 757 755 754 763 773 780 786
774 778 772 774 779 781 772 769 759 743 746 743 749 744 736 734 723 718 724 722 715 715 719 725 738 733 717 713 720 732 740 743 752 763 773 773 771 731 745 746 752 761 768 776 782
775 789 771 771 777 777 770 767 752 740 749 750 751 744 742 738 733 727 725 720 725 721 713 712 730 738 729 706 703 712 720 732 759 761 769 774 766 727 735 738 744 752 761 773 781
776 778 772 774 779 765 765 759 754 743 748 748 753 746 744 748 744 726 720 728 735 733 738 731 728 741 731 718 708 712 713 717 728 746 750 776 754 729 729 734 739 748 756 766 776
776 779 773 771 769 766 762 758 753 746 748 749 753 746 746 750 739 732 741 741 747 740 734 737 722 714 723 716 709 717 713 716 725 745 741 747 741 735 734 743 747 756 761 768 774
774 775 766 781 767 765 758 753 753 742 737 741 758 746 741 754 742 738 751 754 747 749 750 753 744 740 718 718 719 730 722 722 732 737 748 741 746 738 736 741 740 749 761 764 766
770 770 766 764 759 757 757 751 744 740 729 735 747 740 741 743 737 743 751 756 748 740 751 751 750 753 746 725 725 740 736 734 736 735 741 745 746 735 731 732 730 730 738 745 757
761 764 767 758 756 754 746 739 728 734 730 724 730 737 734 733 736 738 741 744 745 745 745 746 752 748 743 726 725 738 738 736 734 731 732 738 734 726 725 726 721 717 718 734 744